Content
SEND FEEDBACK

Daily
Averages
Monthly
Summary
United States of America

CHICAGO, ILLINOIS


Home > North America > United States > Illinois
Elevation: 674 feet     Latitude: 41 59N     Longitude: 087 54W

WEATHER
 
SELECT A DAY
Number of Records: 195,010;   Date Range: 7/8/95 - 8/30/14
 
SHARE

PRINT THIS DATA

[ ← Previous Day ]
WEATHER ALMANAC - AUGUST 1, 2013
[ Next Day → ]
[ °C ]   °F
Weather ElementAverageHighLow
Temperature70.9 °F80.1 °F (1:52 pm)60.1 °F (5:52 am)
Dewpoint56.2 °F62.1 °F (7:52 am)51.1 °F (5:52 pm)
Humidity63.2 %93 % (2:52 am)39 % (2:52 pm)
Barometer29.98 in29.99 in (6:52 am)29.95 in (11:52 pm)
Wind Speed5.6 mph15 mph (1:52 pm)
Wind Gust21.9 mph (3:52 pm)
Weather ElementAverage
Visibility9.7 mi
Wind DirectionS (183.5 °)

Weather ElementTotal
Precipitation0.01 in
Cooling Degree Days5.1 (Base 65)
Growing Degree Days20.1 (Base 50)
Averaged from 23 records on August 1, 2013
WEATHER CONDITIONS BREAKOUT
WIND DIRECTION BREAKOUT
WEATHER BY HOUR - AUGUST 1, 2013
[ °C ]   °F
Local TimeTemperatureDewpointHumidityBarometerVisibilityWind DirectionWind SpeedGust SpeedPrecipitationEventsConditions
1:52 AM63.0 °F60.1 °F90 %29.98 in9.0 miCalmClear
2:52 AM62.1 °F60.1 °F93 %29.97 in9.0 miCalmClear
3:52 AM61.0 °F59.0 °F93 %29.96 in9.0 miCalmClear
4:52 AM62.1 °F59.0 °F90 %29.97 in10.0 miCalm0.01 inClear
5:52 AM60.1 °F57.9 °F93 %29.98 in8.0 miCalmClear
6:52 AM64.0 °F60.1 °F87 %29.99 in9.0 miWNW (290°)4.6 mphScattered Clouds
7:52 AM66.9 °F62.1 °F84 %29.99 in10.0 miWNW (290°)5.8 mphPartly Cloudy
8:52 AM70.0 °F61.0 °F73 %29.99 in10.0 miWNW (300°)6.9 mphPartly Cloudy
9:52 AM73.9 °F60.1 °F62 %29.99 in10.0 miWNW (300°)6.9 mphClear
10:52 AM77.0 °F55.0 °F47 %29.98 in10.0 miWNW (300°)11.5 mphClear
11:52 AM77.0 °F55.0 °F47 %29.99 in10.0 miNW (320°)10.4 mph17.3 mphScattered Clouds
12:52 PM79.0 °F54.0 °F42 %29.99 in10.0 miNNW (340°)10.4 mphScattered Clouds
1:52 PM80.1 °F55.0 °F42 %29.99 in10.0 miWNW (300°)15.0 mph18.4 mphPartly Cloudy
2:52 PM80.1 °F53.1 °F39 %29.98 in10.0 miWNW (290°)13.8 mph18.4 mphPartly Cloudy
3:52 PM80.1 °F53.1 °F39 %29.98 in10.0 miNNW (340°)13.8 mph21.9 mphMostly Cloudy
4:52 PM77.0 °F52.0 °F42 %29.97 in10.0 miWNW (290°)8.1 mphClear
5:52 PM78.1 °F51.1 °F39 %29.96 in10.0 miWNW (300°)8.1 mphPartly Cloudy
6:52 PM77.0 °F51.1 °F40 %29.96 in10.0 miWNW (290°)9.2 mphClear
7:52 PM75.0 °F52.0 °F44 %29.97 in10.0 miWest (270°)4.6 mphClear
8:52 PM72.0 °F54.0 °F53 %29.96 in10.0 miCalmClear
9:52 PM66.0 °F55.9 °F70 %29.97 in10.0 miCalmClear
10:52 PM66.0 °F55.9 °F70 %29.98 in10.0 miCalmClear
11:52 PM64.0 °F55.9 °F75 %29.95 in10.0 miCalmClear
Hourly data recorded from KPWK, located miles away from Chicago, Illinois







STORIES FROM OUR PARTNERS